Lid_Strength_Index
-0 1 2 3 11 11 12 11 8 8 8 6 5 7 8 7 8 12 2 1 0 0 -0 -1 -1 -2 -1 -2 -2 -2 -2 -1 -2 -1 -2 -1 -2 -2 -2 -1 -1 -1 -1 -1 -1 -1 -1 -1 -1
1 1 2 6 12 14 13 8 9 8 6 5 5 6 7 9 5 4 3 1 0 -0 -0 -0 -1 -2 -2 -2 -2 -2 -1 -1 -2 -2 -2 -1 -1 -2 -1 -2 -2 -2 -1 -1 -1 -1 -1 -1 -1
1 1 7 10 11 13 12 8 8 6 5 5 6 5 6 7 4 3 1 0 -0 0 -0 -0 -2 -2 -2 -1 -2 -1 -2 -1 -1 -1 -1 -1 -1 -1 -2 -1 -1 -1 -1 -1 -1 -1 -1 -1 -1
2 4 6 11 11 9 8 7 6 6 5 5 5 8 4 2 3 2 0 0 0 0 -0 -1 -2 -1 -1 -1 -1 -1 -2 -1 -1 -1 -1 -2 -1 -1 -1 -1 -1 -1 -1 -1 -1 -1 -1 -1 -1
2 6 11 11 10 8 6 6 6 7 6 6 5 8 7 3 1 1 1 0 1 0 -0 -0 -1 -2 -1 -1 -1 -2 -2 -1 -1 -1 -1 -1 -1 -1 -1 -1 -1 -1 -1 -1 -1 -1 -1 -1 -1
7 7 11 12 10 8 6 5 6 6 6 6 6 7 6 2 2 1 1 1 0 0 -0 -0 -1 -2 -2 -1 -1 -1 -1 -1 -1 -1 -1 -1 -1 -1 -1 -1 -1 -1 -1 -1 -1 -1 -1 -1 -1
8 10 10 10 10 9 7 5 6 6 6 6 5 8 5 3 1 1 1 0 0 -0 -0 -0 -0 -1 -1 -1 -1 -1 -1 -1 -1 -1 -1 -1 -1 -1 -1 -1 -1 -1 -1 -1 -1 -1 -1 -1 -1
6 8 9 9 10 10 6 5 5 6 6 3 4 8 8 4 1 1 1 1 1 0 0 0 0 0 0 -0 -1 -1 -1 -1 -1 -1 -1 -1 -1 -1 -1 -2 -2 -1 -1 -1 -1 -1 -1 -1 -1
4 10 11 10 9 8 5 6 4 4 5 5 4 4 3 2 1 2 2 2 1 1 1 0 0 0 0 -0 -1 -1 -1 -1 -1 -1 -1 -1 -0 -0 -1 -1 -2 -2 -1 -1 -1 -1 -1 -1 -1
7 10 10 6 6 7 7 6 5 6 6 6 5 3 2 2 3 3 3 3 2 2 1 0 0 0 0 -0 0 -0 -0 -0 -0 -0 -0 -0 -0 -0 -1 -1 -2 -2 -1 -1 -2 -2 -1 -1 -0
6 9 6 6 5 5 6 6 5 6 7 6 6 5 3 3 3 3 3 3 2 2 1 1 1 0 0 0 -0 -0 -0 -0 -0 -0 -0 -0 -1 -1 -0 -0 -0 -0 -1 -0 -1 -1 -1 -1 -1
7 6 7 7 5 5 8 5 6 6 6 4 4 3 3 3 3 4 3 3 2 2 1 1 0 1 0 0 0 0 0 -0 0 -0 -0 -0 0 -0 0 -0 -0 -0 -1 -0 -0 0 -1 -1 -0
7 7 7 6 6 6 5 6 6 6 4 3 3 3 4 4 3 3 2 2 2 2 1 1 1 1 1 1 1 -0 0 0 0 0 0 -0 0 0 0 0 -0 -0 -0 -0 0 -0 0 0 -0
6 7 7 6 6 6 7 7 6 5 4 4 4 4 4 3 3 3 2 2 2 2 1 1 1 0 0 1 1 0 0 0 0 0 0 -0 -0 0 0 0 0 0 -0 -0 0 0 0 0 -0
6 8 7 7 7 7 6 8 8 5 4 5 4 4 4 3 3 3 2 2 2 2 1 1 1 0 1 1 1 0 0 0 0 0 -0 0 0 -0 0 0 0 -0 0 0 0 0 0 0 0
8 9 12 8 8 7 7 12 7 5 5 6 5 4 4 4 3 3 2 2 2 2 2 1 0 0 1 1 1 0 0 0 0 0 -0 0 0 0 0 0 0 0 0 0 0 0 1 1 1
9 13 11 9 7 8 8 11 7 5 5 6 5 5 4 4 3 3 2 2 2 2 1 2 1 1 1 0 0 0 0 0 0 -0 0 0 0 0 0 0 0 0 0 0 0 1 1 1 1
12 13 11 11 8 7 9 10 7 6 6 6 5 5 5 4 4 3 2 2 1 1 1 2 1 1 1 0 0 0 0 1 1 -0 0 -0 1 0 0 0 0 0 0 1 1 1 1 1 1
8 10 11 9 7 8 10 9 8 7 6 6 6 5 5 5 3 3 2 2 2 1 2 1 1 1 1 1 2 2 2 1 1 -0 -0 -1 0 -0 0 0 0 0 1 1 1 1 2 2 1
9 10 11 9 7 7 9 9 8 7 7 6 6 6 5 5 4 3 3 2 2 2 2 2 1 1 1 1 1 1 1 1 0 0 -0 -0 0 0 0 0 0 0 1 2 1 2 2 2 1
10 10 11 10 8 7 9 11 10 8 6 6 5 5 5 5 4 4 3 3 2 2 2 2 1 1 1 1 1 1 1 1 1 1 1 0 0 0 0 0 0 1 2 1 1 1 3 3 2
12 8 8 9 11 13 8 15 11 9 8 7 6 5 5 5 4 3 3 3 3 2 2 2 1 1 1 1 1 2 2 3 3 2 1 2 0 0 0 0 0 1 0 1 1 0 1 2 3
9 8 8 9 11 11 10 13 12 9 10 9 6 5 5 4 4 4 3 3 2 2 2 2 1 1 1 1 1 1 2 3 4 3 2 3 1 0 0 0 1 1 1 1 1 1 2 1 2
7 8 9 10 11 15 12 12 12 11 9 9 6 5 5 4 4 3 3 2 2 2 2 2 2 2 1 1 1 1 2 3 2 2 2 1 1 1 1 0 1 0 0 1 1 1 1 2 1
8 11 15 15 15 15 12 12 11 8 7 7 6 5 5 4 4 4 3 3 3 3 2 2 2 2 1 1 1 1 1 1 2 2 3 3 1 1 1 0 1 0 0 1 0 1 1 1 2
10 12 14 17 16 14 11 13 10 6 6 5 5 5 4 4 4 4 3 3 3 2 2 2 2 2 2 1 1 1 1 1 2 3 3 2 1 1 0 0 1 0 0 0 1 1 1 1 1
11 12 10 14 14 14 12 11 8 7 7 7 6 5 6 5 4 4 3 3 3 2 2 2 2 2 2 1 1 1 1 1 1 1 1 1 1 0 0 0 0 0 0 0 1 2 3 2 1
10 9 13 14 16 16 13 14 13 10 9 7 7 6 6 6 4 4 3 3 3 2 2 2 2 2 2 1 1 1 1 1 1 1 2 1 1 0 0 0 0 1 0 0 1 3 3 2 2
12 13 11 12 13 15 17 15 9 9 9 8 7 7 6 6 5 4 3 3 2 2 2 2 2 2 2 2 1 1 1 1 1 1 2 1 1 0 1 0 1 1 1 1 2 3 2 2 3
10 11 11 13 13 13 13 13 7 7 8 7 7 6 5 6 6 4 4 3 3 3 2 2 2 2 2 1 1 1 1 1 1 1 1 1 1 0 0 1 1 1 1 1 3 3 3 3 4